Data supplied by UK-AIR on 15/3/2019
All Data GMT hour ending 
Status: R =Ratified P=Provisional,P*=As supplied
,,Christchurch Barrack Road,,,,,,,,,,,,,,,,,,,,,,,
Date,time,"Nitric oxide",status,unit,"Nitrogen dioxide",status,unit,"Nitrogen oxides as nitrogen dioxide",status,unit,"PM<sub>2.5</sub> particulate matter (Hourly measured)",status,unit
 
01-01-2018,01:00,0.32022,R,ugm-3,4.18158,R,ugm-3,4.67258,R,ugm-3,11.000,R,ugm-3 (BAM)
01-01-2018,02:00,0.36597,R,ugm-3,2.33141,R,ugm-3,2.89255,R,ugm-3,8.000,R,ugm-3 (BAM)
01-01-2018,03:00,0.24017,R,ugm-3,1.68991,R,ugm-3,2.05816,R,ugm-3,9.000,R,ugm-3 (BAM)
01-01-2018,04:00,0.17155,R,ugm-3,1.51700,R,ugm-3,1.78003,R,ugm-3,12.000,R,ugm-3 (BAM)
01-01-2018,05:00,0.10293,R,ugm-3,0.62094,R,ugm-3,0.77876,R,ugm-3,10.000,R,ugm-3 (BAM)
01-01-2018,06:00,0.24017,R,ugm-3,1.02240,R,ugm-3,1.39065,R,ugm-3,12.000,R,ugm-3 (BAM)
01-01-2018,07:00,0.20586,R,ugm-3,2.29878,R,ugm-3,2.61442,R,ugm-3,14.000,R,ugm-3 (BAM)
01-01-2018,08:00,0.27448,R,ugm-3,3.52859,R,ugm-3,3.94944,R,ugm-3,11.000,R,ugm-3 (BAM)
01-01-2018,09:00,0.37740,R,ugm-3,2.70326,R,ugm-3,3.28193,R,ugm-3,12.000,R,ugm-3 (BAM)
01-01-2018,10:00,0.30879,R,ugm-3,1.30657,R,ugm-3,1.78003,R,ugm-3,9.000,R,ugm-3 (BAM)
01-01-2018,11:00,0.48033,R,ugm-3,5.77174,R,ugm-3,6.50824,R,ugm-3,10.000,R,ugm-3 (BAM)
01-01-2018,12:00,8.13133,R,ugm-3,34.36921,R,ugm-3,46.83708,R,ugm-3,9.000,R,ugm-3 (BAM)
01-01-2018,13:00,14.82167,R,ugm-3,36.79357,R,ugm-3,59.51980,R,ugm-3,7.000,R,ugm-3 (BAM)
01-01-2018,14:00,6.96481,R,ugm-3,19.35881,R,ugm-3,30.03803,R,ugm-3,11.000,R,ugm-3 (BAM)
01-01-2018,15:00,5.66105,R,ugm-3,13.95962,R,ugm-3,22.63978,R,ugm-3,14.000,R,ugm-3 (BAM)
01-01-2018,16:00,5.66105,R,ugm-3,15.62840,R,ugm-3,24.30856,R,ugm-3,11.000,R,ugm-3 (BAM)
01-01-2018,17:00,3.70542,R,ugm-3,13.12002,R,ugm-3,18.80158,R,ugm-3,10.000,R,ugm-3 (BAM)
01-01-2018,18:00,2.36735,R,ugm-3,8.32970,R,ugm-3,11.95959,R,ugm-3,8.000,R,ugm-3 (BAM)
01-01-2018,19:00,2.12718,R,ugm-3,7.52981,R,ugm-3,10.79144,R,ugm-3,9.000,R,ugm-3 (BAM)
01-01-2018,20:00,1.64685,R,ugm-3,6.43065,R,ugm-3,8.95578,R,ugm-3,12.000,R,ugm-3 (BAM)
01-01-2018,21:00,1.30376,R,ugm-3,4.95418,R,ugm-3,6.95325,R,ugm-3,9.000,R,ugm-3 (BAM)
01-01-2018,22:00,1.64685,R,ugm-3,4.98437,R,ugm-3,7.50951,R,ugm-3,7.000,R,ugm-3 (BAM)
01-01-2018,23:00,0.65188,R,ugm-3,4.06243,R,ugm-3,5.06197,R,ugm-3,9.000,R,ugm-3 (BAM)
01-01-2018,24:00,0.65188,R,ugm-3,4.45181,R,ugm-3,5.45135,R,ugm-3,12.000,R,ugm-3 (BAM)
02-01-2018,01:00,0.59510,R,ugm-3,3.68184,R,ugm-3,4.59431,R,ugm-3,9.000,R,ugm-3 (BAM)
02-01-2018,02:00,0.36621,R,ugm-3,2.40255,R,ugm-3,2.96407,R,ugm-3,10.000,R,ugm-3 (BAM)
02-01-2018,03:00,0.27466,R,ugm-3,2.13537,R,ugm-3,2.55651,R,ugm-3,14.000,R,ugm-3 (BAM)
02-01-2018,04:00,0.13733,R,ugm-3,3.67977,R,ugm-3,3.89034,R,ugm-3,14.000,R,ugm-3 (BAM)
02-01-2018,05:00,0.06867,R,ugm-3,6.84176,R,ugm-3,6.94704,R,ugm-3,11.000,R,ugm-3 (BAM)
02-01-2018,06:00,0.41199,R,ugm-3,5.42611,R,ugm-3,6.05782,R,ugm-3,10.000,R,ugm-3 (BAM)
02-01-2018,07:00,0.68665,R,ugm-3,10.00684,R,ugm-3,11.05969,R,ugm-3,13.000,R,ugm-3 (BAM)
02-01-2018,08:00,0.58365,R,ugm-3,9.94246,R,ugm-3,10.83738,R,ugm-3,11.000,R,ugm-3 (BAM)
02-01-2018,09:00,0.48066,R,ugm-3,8.43310,R,ugm-3,9.17009,R,ugm-3,13.000,R,ugm-3 (BAM)
02-01-2018,10:00,0.61798,R,ugm-3,4.22104,R,ugm-3,5.16860,R,ugm-3,12.000,R,ugm-3 (BAM)
02-01-2018,11:00,0.51499,R,ugm-3,2.43379,R,ugm-3,3.22343,R,ugm-3,8.000,R,ugm-3 (BAM)
02-01-2018,12:00,0.61798,R,ugm-3,3.49854,R,ugm-3,4.44611,R,ugm-3,6.000,R,ugm-3 (BAM)
02-01-2018,13:00,0.32044,R,ugm-3,3.65837,R,ugm-3,4.14970,R,ugm-3,6.000,R,ugm-3 (BAM)
02-01-2018,14:00,0.92698,R,ugm-3,8.91585,R,ugm-3,10.33720,R,ugm-3,12.000,R,ugm-3 (BAM)
02-01-2018,15:00,0.41199,R,ugm-3,8.09378,R,ugm-3,8.72548,R,ugm-3,15.000,R,ugm-3 (BAM)
02-01-2018,16:00,3.63924,R,ugm-3,16.48371,R,ugm-3,22.06380,R,ugm-3,23.000,R,ugm-3 (BAM)
02-01-2018,17:00,0.34332,R,ugm-3,11.64479,R,ugm-3,12.17121,R,ugm-3,26.000,R,ugm-3 (BAM)
02-01-2018,18:00,0.34332,R,ugm-3,6.69850,R,ugm-3,7.22492,R,ugm-3,26.000,R,ugm-3 (BAM)
02-01-2018,19:00,0.37766,R,ugm-3,2.64436,R,ugm-3,3.22343,R,ugm-3,24.000,R,ugm-3 (BAM)
02-01-2018,20:00,0.37766,R,ugm-3,2.19975,R,ugm-3,2.77882,R,ugm-3,20.000,R,ugm-3 (BAM)
02-01-2018,21:00,0.20599,R,ugm-3,4.29698,R,ugm-3,4.61284,R,ugm-3,22.000,R,ugm-3 (BAM)
02-01-2018,22:00,0.17166,R,ugm-3,3.23810,R,ugm-3,3.50131,R,ugm-3,19.000,R,ugm-3 (BAM)
02-01-2018,23:00,0.17166,R,ugm-3,1.62638,R,ugm-3,1.88960,R,ugm-3,16.000,R,ugm-3 (BAM)
02-01-2018,24:00,0.20599,R,ugm-3,1.12913,R,ugm-3,1.44498,R,ugm-3,12.000,R,ugm-3 (BAM)
03-01-2018,01:00,0.41227,R,ugm-3,0.47840,R,ugm-3,1.11053,R,ugm-3,15.000,R,ugm-3 (BAM)
03-01-2018,02:00,0.27484,R,ugm-3,0.91122,R,ugm-3,1.33264,R,ugm-3,11.000,R,ugm-3 (BAM)
03-01-2018,03:00,0.20613,R,ugm-3,0.07262,R,ugm-3,0.38869,R,ugm-3,10.000,R,ugm-3 (BAM)
03-01-2018,04:00,0.24049,R,ugm-3,0.18652,R,ugm-3,0.55527,R,ugm-3,10.000,R,ugm-3 (BAM)
03-01-2018,05:00,0.27484,R,ugm-3,0.18937,R,ugm-3,0.61079,R,ugm-3,12.000,R,ugm-3 (BAM)
03-01-2018,06:00,0.61840,R,ugm-3,1.66156,R,ugm-3,2.60975,R,ugm-3,14.000,R,ugm-3 (BAM)
03-01-2018,07:00,0.89324,R,ugm-3,3.18357,R,ugm-3,4.55319,R,ugm-3,15.000,R,ugm-3 (BAM)
03-01-2018,08:00,1.23680,R,ugm-3,8.98683,R,ugm-3,10.88323,R,ugm-3,17.000,R,ugm-3 (BAM)
03-01-2018,09:00,11.40602,R,ugm-3,21.99047,R,ugm-3,39.47945,R,ugm-3,19.000,R,ugm-3 (BAM)
03-01-2018,10:00,1.51164,R,ugm-3,8.78752,R,ugm-3,11.10533,R,ugm-3,14.000,R,ugm-3 (BAM)
03-01-2018,11:00,1.71777,R,ugm-3,6.36144,R,ugm-3,8.99532,R,ugm-3,16.000,R,ugm-3 (BAM)
03-01-2018,12:00,2.19875,R,ugm-3,5.73500,R,ugm-3,9.10637,R,ugm-3,16.000,R,ugm-3 (BAM)
03-01-2018,13:00,,,,,,,,,,17.000,R,ugm-3 (BAM)
03-01-2018,14:00,,,,,,,,,,11.000,R,ugm-3 (BAM)
03-01-2018,15:00,,,,,,,,,,12.000,R,ugm-3 (BAM)
03-01-2018,16:00,,,,,,,,,,18.000,R,ugm-3 (BAM)
03-01-2018,17:00,,,,,,,,,,19.000,R,ugm-3 (BAM)
03-01-2018,18:00,,,,,,,,,,21.000,R,ugm-3 (BAM)
03-01-2018,19:00,,,,,,,,,,21.000,R,ugm-3 (BAM)
03-01-2018,20:00,,,,,,,,,,22.000,R,ugm-3 (BAM)
03-01-2018,21:00,,,,,,,,,,20.000,R,ugm-3 (BAM)
03-01-2018,22:00,,,,,,,,,,12.000,R,ugm-3 (BAM)
03-01-2018,23:00,,,,,,,,,,24.000,R,ugm-3 (BAM)
03-01-2018,24:00,,,,,,,,,,20.000,R,ugm-3 (BAM)
04-01-2018,01:00,,,,,,,,,,6.000,R,ugm-3 (BAM)
04-01-2018,02:00,,,,,,,,,,8.000,R,ugm-3 (BAM)
04-01-2018,03:00,,,,,,,,,,9.000,R,ugm-3 (BAM)
04-01-2018,04:00,,,,,,,,,,6.000,R,ugm-3 (BAM)
04-01-2018,05:00,,,,,,,,,,6.000,R,ugm-3 (BAM)
04-01-2018,06:00,,,,,,,,,,10.000,R,ugm-3 (BAM)
04-01-2018,07:00,,,,,,,,,,9.000,R,ugm-3 (BAM)
04-01-2018,08:00,,,,,,,,,,10.000,R,ugm-3 (BAM)
04-01-2018,09:00,,,,,,,,,,10.000,R,ugm-3 (BAM)
04-01-2018,10:00,,,,,,,,,,14.000,R,ugm-3 (BAM)
04-01-2018,11:00,,,,,,,,,,19.000,R,ugm-3 (BAM)
04-01-2018,12:00,,,,,,,,,,20.000,R,ugm-3 (BAM)
04-01-2018,13:00,,,,,,,,,,15.000,R,ugm-3 (BAM)
04-01-2018,14:00,,,,,,,,,,17.000,R,ugm-3 (BAM)
04-01-2018,15:00,,,,,,,,,,8.000,R,ugm-3 (BAM)
04-01-2018,16:00,,,,,,,,,,9.000,R,ugm-3 (BAM)
04-01-2018,17:00,,,,,,,,,,7.000,R,ugm-3 (BAM)
04-01-2018,18:00,,,,,,,,,,6.000,R,ugm-3 (BAM)
04-01-2018,19:00,,,,,,,,,,12.000,R,ugm-3 (BAM)
04-01-2018,20:00,,,,,,,,,,9.000,R,ugm-3 (BAM)
04-01-2018,21:00,,,,,,,,,,9.000,R,ugm-3 (BAM)
04-01-2018,22:00,,,,,,,,,,11.000,R,ugm-3 (BAM)
04-01-2018,23:00,,,,,,,,,,12.000,R,ugm-3 (BAM)
04-01-2018,24:00,,,,,,,,,,11.000,R,ugm-3 (BAM)
05-01-2018,01:00,,,,,,,,,,11.000,R,ugm-3 (BAM)
05-01-2018,02:00,,,,,,,,,,9.000,R,ugm-3 (BAM)
05-01-2018,03:00,,,,,,,,,,10.000,R,ugm-3 (BAM)
05-01-2018,04:00,,,,,,,,,,11.000,R,ugm-3 (BAM)
05-01-2018,05:00,,,,,,,,,,10.000,R,ugm-3 (BAM)
05-01-2018,06:00,,,,,,,,,,12.000,R,ugm-3 (BAM)
05-01-2018,07:00,,,,,,,,,,8.000,R,ugm-3 (BAM)
05-01-2018,08:00,,,,,,,,,,8.000,R,ugm-3 (BAM)
05-01-2018,09:00,,,,,,,,,,9.000,R,ugm-3 (BAM)
05-01-2018,10:00,,,,,,,,,,9.000,R,ugm-3 (BAM)
05-01-2018,11:00,,,,,,,,,,11.000,R,ugm-3 (BAM)
05-01-2018,12:00,,,,,,,,,,6.000,R,ugm-3 (BAM)
05-01-2018,13:00,,,,,,,,,,6.000,R,ugm-3 (BAM)
05-01-2018,14:00,,,,,,,,,,8.000,R,ugm-3 (BAM)
05-01-2018,15:00,,,,,,,,,,7.000,R,ugm-3 (BAM)
05-01-2018,16:00,,,,,,,,,,5.000,R,ugm-3 (BAM)
05-01-2018,17:00,,,,,,,,,,7.000,R,ugm-3 (BAM)
05-01-2018,18:00,,,,,,,,,,15.000,R,ugm-3 (BAM)
05-01-2018,19:00,,,,,,,,,,18.000,R,ugm-3 (BAM)
05-01-2018,20:00,,,,,,,,,,18.000,R,ugm-3 (BAM)
05-01-2018,21:00,,,,,,,,,,18.000,R,ugm-3 (BAM)
05-01-2018,22:00,,,,,,,,,,17.000,R,ugm-3 (BAM)
05-01-2018,23:00,,,,,,,,,,11.000,R,ugm-3 (BAM)
05-01-2018,24:00,,,,,,,,,,11.000,R,ugm-3 (BAM)
06-01-2018,01:00,,,,,,,,,,13.000,R,ugm-3 (BAM)
06-01-2018,02:00,,,,,,,,,,9.000,R,ugm-3 (BAM)
06-01-2018,03:00,,,,,,,,,,15.000,R,ugm-3 (BAM)
06-01-2018,04:00,,,,,,,,,,12.000,R,ugm-3 (BAM)
06-01-2018,05:00,,,,,,,,,,14.000,R,ugm-3 (BAM)
06-01-2018,06:00,,,,,,,,,,10.000,R,ugm-3 (BAM)
06-01-2018,07:00,,,,,,,,,,13.000,R,ugm-3 (BAM)
06-01-2018,08:00,,,,,,,,,,22.000,R,ugm-3 (BAM)
06-01-2018,09:00,,,,,,,,,,19.000,R,ugm-3 (BAM)
06-01-2018,10:00,,,,,,,,,,20.000,R,ugm-3 (BAM)
06-01-2018,11:00,,,,,,,,,,22.000,R,ugm-3 (BAM)
06-01-2018,12:00,,,,,,,,,,21.000,R,ugm-3 (BAM)
06-01-2018,13:00,,,,,,,,,,21.000,R,ugm-3 (BAM)
06-01-2018,14:00,,,,,,,,,,16.000,R,ugm-3 (BAM)
06-01-2018,15:00,,,,,,,,,,19.000,R,ugm-3 (BAM)
06-01-2018,16:00,,,,,,,,,,16.000,R,ugm-3 (BAM)
06-01-2018,17:00,,,,,,,,,,15.000,R,ugm-3 (BAM)
06-01-2018,18:00,,,,,,,,,,15.000,R,ugm-3 (BAM)
06-01-2018,19:00,,,,,,,,,,12.000,R,ugm-3 (BAM)
06-01-2018,20:00,,,,,,,,,,9.000,R,ugm-3 (BAM)
06-01-2018,21:00,,,,,,,,,,7.000,R,ugm-3 (BAM)
06-01-2018,22:00,,,,,,,,,,12.000,R,ugm-3 (BAM)
06-01-2018,23:00,,,,,,,,,,9.000,R,ugm-3 (BAM)
06-01-2018,24:00,,,,,,,,,,9.000,R,ugm-3 (BAM)
07-01-2018,01:00,,,,,,,,,,9.000,R,ugm-3 (BAM)
07-01-2018,02:00,,,,,,,,,,12.000,R,ugm-3 (BAM)
07-01-2018,03:00,,,,,,,,,,9.000,R,ugm-3 (BAM)
07-01-2018,04:00,,,,,,,,,,12.000,R,ugm-3 (BAM)
07-01-2018,05:00,,,,,,,,,,10.000,R,ugm-3 (BAM)
07-01-2018,06:00,,,,,,,,,,7.000,R,ugm-3 (BAM)
07-01-2018,07:00,,,,,,,,,,5.000,R,ugm-3 (BAM)
07-01-2018,08:00,,,,,,,,,,7.000,R,ugm-3 (BAM)
07-01-2018,09:00,,,,,,,,,,5.000,R,ugm-3 (BAM)
07-01-2018,10:00,,,,,,,,,,6.000,R,ugm-3 (BAM)
07-01-2018,11:00,,,,,,,,,,7.000,R,ugm-3 (BAM)
07-01-2018,12:00,,,,,,,,,,7.000,R,ugm-3 (BAM)
07-01-2018,13:00,,,,,,,,,,7.000,R,ugm-3 (BAM)
07-01-2018,14:00,,,,,,,,,,10.000,R,ugm-3 (BAM)
07-01-2018,15:00,,,,,,,,,,11.000,R,ugm-3 (BAM)
07-01-2018,16:00,,,,,,,,,,10.000,R,ugm-3 (BAM)
07-01-2018,17:00,,,,,,,,,,7.000,R,ugm-3 (BAM)
07-01-2018,18:00,,,,,,,,,,7.000,R,ugm-3 (BAM)
07-01-2018,19:00,,,,,,,,,,11.000,R,ugm-3 (BAM)
07-01-2018,20:00,,,,,,,,,,8.000,R,ugm-3 (BAM)
07-01-2018,21:00,,,,,,,,,,8.000,R,ugm-3 (BAM)
07-01-2018,22:00,,,,,,,,,,16.000,R,ugm-3 (BAM)
07-01-2018,23:00,,,,,,,,,,7.000,R,ugm-3 (BAM)
07-01-2018,24:00,,,,,,,,,,11.000,R,ugm-3 (BAM)
08-01-2018,01:00,,,,,,,,,,12.000,R,ugm-3 (BAM)
08-01-2018,02:00,,,,,,,,,,11.000,R,ugm-3 (BAM)
08-01-2018,03:00,,,,,,,,,,10.000,R,ugm-3 (BAM)
08-01-2018,04:00,,,,,,,,,,15.000,R,ugm-3 (BAM)
08-01-2018,05:00,,,,,,,,,,14.000,R,ugm-3 (BAM)
08-01-2018,06:00,,,,,,,,,,15.000,R,ugm-3 (BAM)
08-01-2018,07:00,,,,,,,,,,14.000,R,ugm-3 (BAM)
08-01-2018,08:00,,,,,,,,,,14.000,R,ugm-3 (BAM)
08-01-2018,09:00,,,,,,,,,,17.000,R,ugm-3 (BAM)
08-01-2018,10:00,,,,,,,,,,17.000,R,ugm-3 (BAM)
08-01-2018,11:00,,,,,,,,,,19.000,R,ugm-3 (BAM)
08-01-2018,12:00,,,,,,,,,,23.000,R,ugm-3 (BAM)
08-01-2018,13:00,,,,,,,,,,22.000,R,ugm-3 (BAM)
08-01-2018,14:00,,,,,,,,,,30.000,R,ugm-3 (BAM)
08-01-2018,15:00,95.31123,R,ugm-3,59.32768,R,ugm-3,205.46954,R,ugm-3,23.000,R,ugm-3 (BAM)
08-01-2018,16:00,105.30771,R,ugm-3,69.42799,R,ugm-3,230.89756,R,ugm-3,17.000,R,ugm-3 (BAM)
08-01-2018,17:00,86.59017,R,ugm-3,73.38156,R,ugm-3,206.15130,R,ugm-3,27.000,R,ugm-3 (BAM)
08-01-2018,18:00,85.34923,R,ugm-3,66.36607,R,ugm-3,197.23306,R,ugm-3,25.000,R,ugm-3 (BAM)
08-01-2018,19:00,61.66792,R,ugm-3,58.56480,R,ugm-3,153.12096,R,ugm-3,26.000,R,ugm-3 (BAM)
08-01-2018,20:00,39.22755,R,ugm-3,45.54408,R,ugm-3,105.69216,R,ugm-3,23.000,R,ugm-3 (BAM)
08-01-2018,21:00,21.30284,R,ugm-3,37.15263,R,ugm-3,69.81652,R,ugm-3,21.000,R,ugm-3 (BAM)
08-01-2018,22:00,17.95919,R,ugm-3,36.75166,R,ugm-3,64.28869,R,ugm-3,25.000,R,ugm-3 (BAM)
08-01-2018,23:00,15.09813,R,ugm-3,29.19844,R,ugm-3,52.34857,R,ugm-3,20.000,R,ugm-3 (BAM)
08-01-2018,24:00,6.79071,R,ugm-3,22.20194,R,ugm-3,32.61421,R,ugm-3,22.000,R,ugm-3 (BAM)
09-01-2018,01:00,3.26540,R,ugm-3,22.82837,R,ugm-3,27.83524,R,ugm-3,20.000,R,ugm-3 (BAM)
09-01-2018,02:00,2.52953,R,ugm-3,22.41028,R,ugm-3,26.28884,R,ugm-3,25.000,R,ugm-3 (BAM)
09-01-2018,03:00,2.24209,R,ugm-3,22.02259,R,ugm-3,25.46041,R,ugm-3,31.000,R,ugm-3 (BAM)
09-01-2018,04:00,2.41456,R,ugm-3,24.79572,R,ugm-3,28.49799,R,ugm-3,24.000,R,ugm-3 (BAM)
09-01-2018,05:00,3.10443,R,ugm-3,27.27257,R,ugm-3,32.03262,R,ugm-3,26.000,R,ugm-3 (BAM)
09-01-2018,06:00,15.07372,R,ugm-3,31.12183,R,ugm-3,54.23454,R,ugm-3,28.000,R,ugm-3 (BAM)
09-01-2018,07:00,44.49679,R,ugm-3,43.77626,R,ugm-3,112.00372,R,ugm-3,30.000,R,ugm-3 (BAM)
09-01-2018,08:00,35.21800,R,ugm-3,37.34802,R,ugm-3,91.34820,R,ugm-3,27.000,R,ugm-3 (BAM)
09-01-2018,09:00,16.69492,R,ugm-3,23.16839,R,ugm-3,48.76691,R,ugm-3,28.000,R,ugm-3 (BAM)
09-01-2018,10:00,3.13892,R,ugm-3,16.06349,R,ugm-3,20.87643,R,ugm-3,24.000,R,ugm-3 (BAM)
09-01-2018,11:00,5.65696,R,ugm-3,14.74307,R,ugm-3,23.41695,R,ugm-3,20.000,R,ugm-3 (BAM)
09-01-2018,12:00,41.90977,R,ugm-3,32.72078,R,ugm-3,96.98153,R,ugm-3,25.000,R,ugm-3 (BAM)
09-01-2018,13:00,26.31865,R,ugm-3,30.61414,R,ugm-3,70.96883,R,ugm-3,29.000,R,ugm-3 (BAM)
09-01-2018,14:00,19.69587,R,ugm-3,27.12744,R,ugm-3,57.32735,R,ugm-3,25.000,R,ugm-3 (BAM)
09-01-2018,15:00,7.77257,R,ugm-3,15.10746,R,ugm-3,27.02522,R,ugm-3,17.000,R,ugm-3 (BAM)
09-01-2018,16:00,5.34651,R,ugm-3,12.78902,R,ugm-3,20.98689,R,ugm-3,16.000,R,ugm-3 (BAM)
09-01-2018,17:00,1.06930,R,ugm-3,10.34505,R,ugm-3,11.98462,R,ugm-3,17.000,R,ugm-3 (BAM)
09-01-2018,18:00,6.20886,R,ugm-3,13.23410,R,ugm-3,22.75421,R,ugm-3,21.000,R,ugm-3 (BAM)
09-01-2018,19:00,3.41487,R,ugm-3,11.55345,R,ugm-3,16.78951,R,ugm-3,17.000,R,ugm-3 (BAM)
09-01-2018,20:00,4.69114,R,ugm-3,11.30863,R,ugm-3,18.50160,R,ugm-3,15.000,R,ugm-3 (BAM)
09-01-2018,21:00,3.44936,R,ugm-3,10.34076,R,ugm-3,15.62971,R,ugm-3,22.000,R,ugm-3 (BAM)
09-01-2018,22:00,1.51772,R,ugm-3,9.87840,R,ugm-3,12.20553,R,ugm-3,20.000,R,ugm-3 (BAM)
09-01-2018,23:00,1.86266,R,ugm-3,9.68087,R,ugm-3,12.53691,R,ugm-3,20.000,R,ugm-3 (BAM)
09-01-2018,24:00,0.34494,R,ugm-3,6.81652,R,ugm-3,7.34541,R,ugm-3,18.000,R,ugm-3 (BAM)
10-01-2018,01:00,0.13807,R,ugm-3,4.86477,R,ugm-3,5.07647,R,ugm-3,10.000,R,ugm-3 (BAM)
10-01-2018,02:00,0.00000,R,ugm-3,2.79574,R,ugm-3,2.79574,R,ugm-3,14.000,R,ugm-3 (BAM)
10-01-2018,03:00,0.17258,R,ugm-3,3.87380,R,ugm-3,4.13842,R,ugm-3,9.000,R,ugm-3 (BAM)
10-01-2018,04:00,0.06903,R,ugm-3,3.92222,R,ugm-3,4.02807,R,ugm-3,11.000,R,ugm-3 (BAM)
10-01-2018,05:00,0.06903,R,ugm-3,4.80508,R,ugm-3,4.91093,R,ugm-3,10.000,R,ugm-3 (BAM)
10-01-2018,06:00,16.42993,R,ugm-3,31.75251,R,ugm-3,56.94472,R,ugm-3,9.000,R,ugm-3 (BAM)
10-01-2018,07:00,113.76693,R,ugm-3,92.84686,R,ugm-3,267.28705,R,ugm-3,22.000,R,ugm-3 (BAM)
10-01-2018,08:00,244.44702,R,ugm-3,128.69477,R,ugm-3,503.50832,R,ugm-3,28.000,R,ugm-3 (BAM)
10-01-2018,09:00,327.59767,R,ugm-3,143.39516,R,ugm-3,645.70458,R,ugm-3,22.000,R,ugm-3 (BAM)
10-01-2018,10:00,498.80033,R,ugm-3,181.33770,R,ugm-3,946.15421,R,ugm-3,37.000,R,ugm-3 (BAM)
10-01-2018,11:00,80.49286,R,ugm-3,72.46476,R,ugm-3,195.88543,R,ugm-3,13.000,R,ugm-3 (BAM)
10-01-2018,12:00,2.58875,R,ugm-3,12.58434,R,ugm-3,16.55370,R,ugm-3,9.000,R,ugm-3 (BAM)
10-01-2018,13:00,2.31262,R,ugm-3,11.68344,R,ugm-3,15.22940,R,ugm-3,11.000,R,ugm-3 (BAM)
10-01-2018,14:00,1.10453,R,ugm-3,9.39738,R,ugm-3,11.09098,R,ugm-3,10.000,R,ugm-3 (BAM)
10-01-2018,15:00,1.48422,R,ugm-3,10.02915,R,ugm-3,12.30492,R,ugm-3,7.000,R,ugm-3 (BAM)
10-01-2018,16:00,7.24850,R,ugm-3,22.37944,R,ugm-3,33.49365,R,ugm-3,13.000,R,ugm-3 (BAM)
10-01-2018,17:00,36.20798,R,ugm-3,79.28415,R,ugm-3,134.80228,R,ugm-3,15.000,R,ugm-3 (BAM)
10-01-2018,18:00,213.52009,R,ugm-3,139.42138,R,ugm-3,466.81429,R,ugm-3,35.000,R,ugm-3 (BAM)
10-01-2018,19:00,221.42441,R,ugm-3,133.97825,R,ugm-3,473.49095,R,ugm-3,43.000,R,ugm-3 (BAM)
10-01-2018,20:00,133.51046,R,ugm-3,99.26789,R,ugm-3,303.98108,R,ugm-3,40.000,R,ugm-3 (BAM)
10-01-2018,21:00,78.42186,R,ugm-3,67.74965,R,ugm-3,187.99483,R,ugm-3,40.000,R,ugm-3 (BAM)
10-01-2018,22:00,71.44950,R,ugm-3,63.92839,R,ugm-3,173.48276,R,ugm-3,30.000,R,ugm-3 (BAM)
10-01-2018,23:00,27.30268,R,ugm-3,51.77522,R,ugm-3,93.63875,R,ugm-3,25.000,R,ugm-3 (BAM)
10-01-2018,24:00,22.98810,R,ugm-3,54.52830,R,ugm-3,89.77622,R,ugm-3,22.000,R,ugm-3 (BAM)
11-01-2018,01:00,35.32259,R,ugm-3,59.47937,R,ugm-3,113.63992,R,ugm-3,23.000,R,ugm-3 (BAM)
11-01-2018,02:00,7.36847,R,ugm-3,45.52180,R,ugm-3,56.81996,R,ugm-3,19.000,R,ugm-3 (BAM)
11-01-2018,03:00,3.21219,R,ugm-3,37.79994,R,ugm-3,42.72523,R,ugm-3,21.000,R,ugm-3 (BAM)
11-01-2018,04:00,1.65791,R,ugm-3,29.10215,R,ugm-3,31.64424,R,ugm-3,15.000,R,ugm-3 (BAM)
11-01-2018,05:00,1.69245,R,ugm-3,19.89772,R,ugm-3,22.49277,R,ugm-3,21.000,R,ugm-3 (BAM)
11-01-2018,06:00,8.28953,R,ugm-3,21.08385,R,ugm-3,33.79428,R,ugm-3,26.000,R,ugm-3 (BAM)
11-01-2018,07:00,25.14490,R,ugm-3,34.16061,R,ugm-3,72.71558,R,ugm-3,22.000,R,ugm-3 (BAM)
11-01-2018,08:00,43.27824,R,ugm-3,49.02665,R,ugm-3,115.38568,R,ugm-3,25.000,R,ugm-3 (BAM)
11-01-2018,09:00,39.30617,R,ugm-3,53.62857,R,ugm-3,113.89719,R,ugm-3,26.000,R,ugm-3 (BAM)
11-01-2018,10:00,33.57258,R,ugm-3,50.73253,R,ugm-3,102.20977,R,ugm-3,32.000,R,ugm-3 (BAM)
11-01-2018,11:00,40.34236,R,ugm-3,46.96787,R,ugm-3,108.82529,R,ugm-3,34.000,R,ugm-3 (BAM)
11-01-2018,12:00,31.56928,R,ugm-3,40.24241,R,ugm-3,88.64796,R,ugm-3,31.000,R,ugm-3 (BAM)
11-01-2018,13:00,36.05944,R,ugm-3,35.67302,R,ugm-3,90.96339,R,ugm-3,32.000,R,ugm-3 (BAM)
11-01-2018,14:00,46.97398,R,ugm-3,44.73815,R,ugm-3,116.76392,R,ugm-3,33.000,R,ugm-3 (BAM)
11-01-2018,15:00,41.41309,R,ugm-3,42.01834,R,ugm-3,105.51753,R,ugm-3,30.000,R,ugm-3 (BAM)
11-01-2018,16:00,55.09081,R,ugm-3,55.44684,R,ugm-3,139.91823,R,ugm-3,30.000,R,ugm-3 (BAM)
11-01-2018,17:00,47.35392,R,ugm-3,54.46477,R,ugm-3,127.07310,R,ugm-3,35.000,R,ugm-3 (BAM)
11-01-2018,18:00,42.79468,R,ugm-3,56.71438,R,ugm-3,122.33198,R,ugm-3,27.000,R,ugm-3 (BAM)
11-01-2018,19:00,37.06109,R,ugm-3,52.49524,R,ugm-3,109.32146,R,ugm-3,29.000,R,ugm-3 (BAM)
11-01-2018,20:00,18.99683,R,ugm-3,45.13114,R,ugm-3,74.25920,R,ugm-3,31.000,R,ugm-3 (BAM)
11-01-2018,21:00,12.36521,R,ugm-3,34.07469,R,ugm-3,53.03441,R,ugm-3,30.000,R,ugm-3 (BAM)
11-01-2018,22:00,9.53296,R,ugm-3,32.13268,R,ugm-3,46.74967,R,ugm-3,30.000,R,ugm-3 (BAM)
11-01-2018,23:00,7.42603,R,ugm-3,28.85798,R,ugm-3,40.24441,R,ugm-3,29.000,R,ugm-3 (BAM)
11-01-2018,24:00,10.77638,R,ugm-3,30.50176,R,ugm-3,47.02532,R,ugm-3,35.000,R,ugm-3 (BAM)
12-01-2018,01:00,4.70053,R,ugm-3,26.94201,R,ugm-3,34.14939,R,ugm-3,33.000,R,ugm-3 (BAM)
12-01-2018,02:00,2.48852,R,ugm-3,24.01792,R,ugm-3,27.83359,R,ugm-3,31.000,R,ugm-3 (BAM)
12-01-2018,03:00,2.90327,R,ugm-3,25.84220,R,ugm-3,30.29381,R,ugm-3,32.000,R,ugm-3 (BAM)
12-01-2018,04:00,3.49084,R,ugm-3,21.14078,R,ugm-3,26.49332,R,ugm-3,30.000,R,ugm-3 (BAM)
12-01-2018,05:00,5.77197,R,ugm-3,22.26977,R,ugm-3,31.12001,R,ugm-3,32.000,R,ugm-3 (BAM)
12-01-2018,06:00,15.65691,R,ugm-3,30.63209,R,ugm-3,54.63903,R,ugm-3,33.000,R,ugm-3 (BAM)
12-01-2018,07:00,51.29108,R,ugm-3,41.59368,R,ugm-3,120.23890,R,ugm-3,35.000,R,ugm-3 (BAM)
12-01-2018,08:00,134.06880,R,ugm-3,70.10442,R,ugm-3,275.67371,R,ugm-3,41.000,R,ugm-3 (BAM)
12-01-2018,09:00,151.76491,R,ugm-3,69.02344,R,ugm-3,301.72639,R,ugm-3,39.000,R,ugm-3 (BAM)
12-01-2018,10:00,121.86816,R,ugm-3,60.77626,R,ugm-3,247.63816,R,ugm-3,39.000,R,ugm-3 (BAM)
12-01-2018,11:00,121.66078,R,ugm-3,65.50061,R,ugm-3,252.04454,R,ugm-3,47.000,R,ugm-3 (BAM)
12-01-2018,12:00,132.61716,R,ugm-3,69.02545,R,ugm-3,272.36893,R,ugm-3,46.000,R,ugm-3 (BAM)
12-01-2018,13:00,95.39311,R,ugm-3,55.37925,R,ugm-3,201.64665,R,ugm-3,33.000,R,ugm-3 (BAM)
12-01-2018,14:00,89.44832,R,ugm-3,69.12115,R,ugm-3,206.27334,R,ugm-3,41.000,R,ugm-3 (BAM)
12-01-2018,15:00,22.46577,R,ugm-3,33.74159,R,ugm-3,68.18862,R,ugm-3,27.000,R,ugm-3 (BAM)
12-01-2018,16:00,16.97030,R,ugm-3,30.49098,R,ugm-3,56.51173,R,ugm-3,19.000,R,ugm-3 (BAM)
12-01-2018,17:00,12.26977,R,ugm-3,21.83541,R,ugm-3,40.64879,R,ugm-3,17.000,R,ugm-3 (BAM)
12-01-2018,18:00,12.37345,R,ugm-3,29.22234,R,ugm-3,48.19471,R,ugm-3,16.000,R,ugm-3 (BAM)
12-01-2018,19:00,6.87798,R,ugm-3,17.93010,R,ugm-3,28.47619,R,ugm-3,15.000,R,ugm-3 (BAM)
12-01-2018,20:00,5.11528,R,ugm-3,18.53983,R,ugm-3,26.38316,R,ugm-3,14.000,R,ugm-3 (BAM)
12-01-2018,21:00,5.04616,R,ugm-3,16.88328,R,ugm-3,24.62061,R,ugm-3,17.000,R,ugm-3 (BAM)
12-01-2018,22:00,3.97471,R,ugm-3,12.63261,R,ugm-3,18.72709,R,ugm-3,19.000,R,ugm-3 (BAM)
12-01-2018,23:00,1.24426,R,ugm-3,7.62095,R,ugm-3,9.52878,R,ugm-3,16.000,R,ugm-3 (BAM)
12-01-2018,24:00,1.07144,R,ugm-3,6.01322,R,ugm-3,7.65607,R,ugm-3,13.000,R,ugm-3 (BAM)
13-01-2018,01:00,0.64560,R,ugm-3,5.76044,R,ugm-3,6.75035,R,ugm-3,13.000,R,ugm-3 (BAM)
13-01-2018,02:00,0.04611,R,ugm-3,4.62519,R,ugm-3,4.69589,R,ugm-3,17.000,R,ugm-3 (BAM)
13-01-2018,03:00,0.17293,R,ugm-3,4.19228,R,ugm-3,4.45743,R,ugm-3,17.000,R,ugm-3 (BAM)
13-01-2018,04:00,0.10376,R,ugm-3,3.85810,R,ugm-3,4.01719,R,ugm-3,10.000,R,ugm-3 (BAM)
13-01-2018,05:00,0.17293,R,ugm-3,3.75204,R,ugm-3,4.01719,R,ugm-3,9.000,R,ugm-3 (BAM)
13-01-2018,06:00,0.27669,R,ugm-3,4.08821,R,ugm-3,4.51246,R,ugm-3,13.000,R,ugm-3 (BAM)
13-01-2018,07:00,0.13834,R,ugm-3,3.69501,R,ugm-3,3.90713,R,ugm-3,12.000,R,ugm-3 (BAM)
13-01-2018,08:00,1.48719,R,ugm-3,6.08424,R,ugm-3,8.36456,R,ugm-3,10.000,R,ugm-3 (BAM)
13-01-2018,09:00,4.49615,R,ugm-3,12.36650,R,ugm-3,19.26050,R,ugm-3,9.000,R,ugm-3 (BAM)
13-01-2018,10:00,6.53671,R,ugm-3,15.62117,R,ugm-3,25.64398,R,ugm-3,18.000,R,ugm-3 (BAM)
13-01-2018,11:00,10.92910,R,ugm-3,23.85442,R,ugm-3,40.61214,R,ugm-3,23.000,R,ugm-3 (BAM)
13-01-2018,12:00,11.55164,R,ugm-3,20.25843,R,ugm-3,37.97070,R,ugm-3,16.000,R,ugm-3 (BAM)
13-01-2018,13:00,14.42226,R,ugm-3,24.60665,R,ugm-3,46.72047,R,ugm-3,24.000,R,ugm-3 (BAM)
13-01-2018,14:00,14.00723,R,ugm-3,28.70991,R,ugm-3,50.18736,R,ugm-3,24.000,R,ugm-3 (BAM)
13-01-2018,15:00,13.93806,R,ugm-3,30.08166,R,ugm-3,51.45305,R,ugm-3,19.000,R,ugm-3 (BAM)
13-01-2018,16:00,14.21474,R,ugm-3,26.08046,R,ugm-3,47.87610,R,ugm-3,25.000,R,ugm-3 (BAM)
13-01-2018,17:00,30.19336,R,ugm-3,31.90179,R,ugm-3,78.19763,R,ugm-3,23.000,R,ugm-3 (BAM)
13-01-2018,18:00,16.80868,R,ugm-3,35.53048,R,ugm-3,61.30342,R,ugm-3,26.000,R,ugm-3 (BAM)
13-01-2018,19:00,15.04480,R,ugm-3,31.30126,R,ugm-3,54.36964,R,ugm-3,27.000,R,ugm-3 (BAM)
13-01-2018,20:00,12.41628,R,ugm-3,28.50788,R,ugm-3,47.54592,R,ugm-3,19.000,R,ugm-3 (BAM)
13-01-2018,21:00,4.91118,R,ugm-3,18.82900,R,ugm-3,26.35937,R,ugm-3,23.000,R,ugm-3 (BAM)
13-01-2018,22:00,7.74721,R,ugm-3,18.49767,R,ugm-3,30.37656,R,ugm-3,19.000,R,ugm-3 (BAM)
13-01-2018,23:00,9.58025,R,ugm-3,24.87705,R,ugm-3,39.56657,R,ugm-3,17.000,R,ugm-3 (BAM)
13-01-2018,24:00,13.93806,R,ugm-3,23.53309,R,ugm-3,44.90448,R,ugm-3,22.000,R,ugm-3 (BAM)
14-01-2018,01:00,11.35168,R,ugm-3,28.55789,R,ugm-3,45.96356,R,ugm-3,23.000,R,ugm-3 (BAM)
14-01-2018,02:00,4.38378,R,ugm-3,16.66327,R,ugm-3,23.38497,R,ugm-3,25.000,R,ugm-3 (BAM)
14-01-2018,03:00,2.56105,R,ugm-3,17.51544,R,ugm-3,21.44233,R,ugm-3,25.000,R,ugm-3 (BAM)
14-01-2018,04:00,2.38801,R,ugm-3,15.36164,R,ugm-3,19.02319,R,ugm-3,25.000,R,ugm-3 (BAM)
14-01-2018,05:00,2.07653,R,ugm-3,12.92527,R,ugm-3,16.10924,R,ugm-3,23.000,R,ugm-3 (BAM)
14-01-2018,06:00,2.56105,R,ugm-3,13.17200,R,ugm-3,17.09888,R,ugm-3,19.000,R,ugm-3 (BAM)
14-01-2018,07:00,2.52644,R,ugm-3,11.63063,R,ugm-3,15.50445,R,ugm-3,22.000,R,ugm-3 (BAM)
14-01-2018,08:00,4.32610,R,ugm-3,14.36923,R,ugm-3,21.00249,R,ugm-3,21.000,R,ugm-3 (BAM)
14-01-2018,09:00,11.42090,R,ugm-3,24.27326,R,ugm-3,41.78505,R,ugm-3,28.000,R,ugm-3 (BAM)
14-01-2018,10:00,15.85082,R,ugm-3,32.87529,R,ugm-3,57.17954,R,ugm-3,27.000,R,ugm-3 (BAM)
14-01-2018,11:00,27.47937,R,ugm-3,35.05794,R,ugm-3,77.19238,R,ugm-3,28.000,R,ugm-3 (BAM)
14-01-2018,12:00,32.35921,R,ugm-3,39.56134,R,ugm-3,89.17810,R,ugm-3,28.000,R,ugm-3 (BAM)
14-01-2018,13:00,70.01356,R,ugm-3,59.51268,R,ugm-3,166.86530,R,ugm-3,26.000,R,ugm-3 (BAM)
14-01-2018,14:00,41.42671,R,ugm-3,44.35134,R,ugm-3,107.87141,R,ugm-3,23.000,R,ugm-3 (BAM)